Theta_e
275 275 275 275 275 275 275 276 276 276 276 276 277 277 278 279 281 282 284 285 289 289 289 288 288 288 289 289 289 290 290 291 293 294 296 300 306 308 309 308 307 307 306 307 307 306 305 304 302 303 304 304 303 303 303 302 303 304 303 303 299 296 301 300 298 292 290 292 292 291 291 291 291 293 293 292 292 294 296 296 297 297 297 299 302
274 274 274 274 274 274 274 274 274 275 275 276 276 277 277 278 279 281 282 284 287 289 289 288 288 288 288 289 289 289 290 290 291 293 295 297 303 308 308 308 307 306 307 306 306 306 305 303 301 301 302 304 302 301 302 301 303 302 303 303 299 297 297 297 297 295 290 287 288 290 290 293 291 293 293 292 292 292 292 292 292 293 296 296 298
273 273 273 273 273 273 273 273 274 274 274 274 275 277 277 278 279 279 280 282 286 289 290 288 288 288 288 288 288 288 289 289 290 292 293 295 299 305 308 307 307 306 305 305 305 305 304 302 301 300 301 301 300 301 300 301 302 302 302 302 300 300 296 293 294 293 290 288 289 288 289 291 292 292 293 293 292 293 293 292 293 292 292 293 296
272 272 272 272 272 272 272 272 273 273 273 274 274 275 277 277 278 278 279 281 283 286 289 290 289 287 287 288 288 288 288 289 289 290 292 293 296 302 307 307 307 307 306 305 305 305 304 302 301 300 299 299 299 299 300 301 301 302 301 301 301 300 299 295 294 292 290 287 286 289 289 290 289 292 292 292 293 293 293 290 290 291 290 291 292
272 272 271 271 271 271 271 271 272 272 273 274 274 275 276 276 277 277 278 279 280 283 286 290 289 288 288 287 288 288 288 288 289 289 290 292 294 298 305 307 307 307 306 306 303 305 304 303 301 300 299 299 298 298 300 299 300 300 301 301 301 300 298 296 293 292 291 289 287 287 288 289 290 291 292 292 291 291 290 290 291 290 289 288 289
271 271 270 270 270 270 270 270 271 271 272 273 274 274 275 276 276 277 278 278 279 281 284 288 289 289 288 288 287 288 288 288 288 289 289 291 293 296 303 306 307 307 306 306 305 305 304 303 301 301 299 299 298 299 299 299 299 299 299 300 301 300 297 294 293 292 291 289 288 286 288 288 288 290 291 293 292 289 289 288 288 288 289 290 289
271 270 270 269 269 269 269 270 270 271 272 273 273 274 275 275 276 276 277 278 278 279 281 284 287 288 288 287 287 287 288 288 288 289 289 290 292 294 300 306 306 306 306 305 305 305 305 303 302 301 300 300 299 299 299 299 298 297 298 299 299 299 295 291 291 290 289 288 287 288 287 288 289 289 290 291 292 292 290 289 288 287 286 290 290
270 270 269 269 268 268 269 269 270 270 271 272 273 273 274 275 276 276 277 277 277 278 280 281 284 286 287 287 287 287 287 288 288 288 289 290 291 293 298 304 304 305 304 304 304 304 304 303 302 301 301 300 300 300 299 298 298 295 297 297 297 296 293 290 290 289 288 287 287 286 287 287 287 288 289 289 289 288 289 290 289 288 288 288 289
270 270 269 268 269 268 269 269 269 270 270 271 272 273 274 275 276 276 276 276 277 278 278 279 280 282 284 285 286 286 287 287 288 288 289 289 291 294 297 302 303 303 303 303 304 304 304 304 303 302 300 297 296 297 298 298 297 295 294 294 293 294 292 291 290 289 288 287 286 287 286 286 287 287 287 288 289 289 290 290 290 289 288 287 286
270 268 268 268 268 268 268 269 269 269 270 270 271 272 272 274 275 275 275 276 277 277 278 279 280 281 282 283 284 286 287 288 288 290 290 289 290 292 295 301 302 302 302 302 302 303 303 304 303 297 295 295 295 296 296 296 296 297 295 293 293 293 292 291 290 289 288 287 286 286 285 285 286 287 288 289 291 291 289 287 287 285 286 285 282
269 268 268 268 268 268 268 268 268 268 269 269 270 271 272 273 274 275 275 276 276 277 278 278 278 280 282 283 284 285 286 288 289 291 291 292 291 292 293 299 302 302 301 301 301 301 303 303 303 297 295 294 295 295 296 296 296 295 295 294 294 293 291 291 290 289 288 288 287 287 286 286 286 288 288 289 289 289 288 288 287 286 286 286 285
268 268 268 268 268 267 267 267 267 268 269 269 270 271 272 272 273 274 275 275 276 277 277 278 279 280 281 282 284 285 286 288 290 291 291 292 291 291 293 296 301 302 302 302 302 301 302 302 301 300 298 297 297 296 295 295 295 295 295 294 294 295 294 293 290 289 289 288 287 287 287 287 287 288 288 288 287 287 288 288 287 287 287 287 287
267 267 267 267 267 267 267 267 266 267 268 269 269 270 271 272 272 273 274 275 276 277 278 278 279 280 282 283 284 285 286 289 290 291 291 292 292 292 292 295 299 300 302 302 302 302 301 301 300 300 300 293 294 297 296 295 294 295 294 294 294 295 295 295 294 292 291 290 288 287 288 288 287 287 289 289 289 287 287 287 287 287 288 288 288
266 266 266 266 266 267 266 266 266 266 267 268 269 269 269 270 271 272 274 276 276 277 278 278 279 280 281 284 285 286 286 288 290 291 291 291 292 292 292 294 298 301 301 302 302 301 301 300 299 298 298 295 296 297 296 295 294 293 293 292 292 293 294 294 293 293 292 292 290 288 289 290 288 289 289 290 288 288 287 287 287 287 287 288 289
266 266 266 266 266 266 266 266 265 266 266 266 267 267 267 268 269 270 271 274 276 277 278 278 279 279 280 282 284 286 287 289 290 290 291 291 292 292 292 294 298 300 302 302 302 302 300 301 300 299 298 296 296 296 295 293 292 291 291 290 290 291 292 292 292 292 292 292 291 291 291 291 291 290 290 289 289 290 289 289 288 288 288 285 284
265 265 265 265 265 265 265 264 265 265 265 265 266 266 267 268 268 270 271 272 274 277 278 279 279 280 282 282 283 284 286 288 290 290 291 291 292 290 291 293 296 298 300 300 301 301 301 300 299 298 297 296 295 295 295 293 291 290 290 289 289 291 292 292 293 293 292 292 292 292 291 291 292 289 289 289 288 287 287 287 287 286 286 286 283
264 264 264 264 264 264 264 264 264 264 264 264 265 265 266 267 269 270 271 272 274 276 278 279 280 281 282 283 283 284 285 287 290 290 291 291 291 289 290 293 295 296 298 299 300 300 300 299 299 298 297 297 295 296 295 293 291 290 290 289 289 289 290 291 293 293 293 293 293 294 294 294 294 293 293 293 290 288 288 287 286 286 286 282 279
264 264 263 263 263 263 263 263 263 263 264 264 264 265 266 267 268 269 269 271 272 276 279 279 280 281 282 284 285 285 286 287 289 290 291 291 290 289 291 293 295 296 296 298 299 298 298 295 296 299 297 297 295 296 296 293 291 290 290 289 288 289 289 290 291 292 293 293 293 293 293 293 293 294 294 293 293 290 289 287 287 287 286 285 282
263 263 262 263 263 263 263 263 263 263 263 264 264 265 266 267 268 269 270 271 272 275 279 279 280 282 284 285 286 286 286 287 289 290 290 291 290 289 291 294 295 295 296 296 297 297 297 294 294 296 297 296 295 296 295 292 291 290 290 289 289 288 289 289 289 288 289 289 289 290 290 291 291 291 291 292 292 290 290 289 289 288 286 286 284
263 263 262 262 262 262 262 262 263 263 263 264 265 265 266 267 268 268 269 271 273 276 279 280 280 282 284 286 286 286 286 286 287 290 290 291 291 290 292 294 294 294 296 296 295 295 295 295 295 296 297 296 295 296 295 294 292 291 291 290 289 289 290 289 289 290 289 289 289 289 289 289 289 289 290 291 290 289 290 289 289 289 288 287 285
262 262 261 261 261 261 262 262 262 263 264 264 265 266 267 267 268 269 269 271 273 276 278 279 279 280 284 286 286 286 287 286 287 289 290 291 292 292 292 294 295 295 295 294 295 294 294 295 295 295 296 295 295 296 295 294 293 291 291 291 291 291 290 289 289 289 289 289 288 288 289 289 288 288 289 289 289 289 289 289 289 290 289 288 286
261 260 260 260 260 261 261 262 263 264 265 266 266 266 267 268 269 269 270 271 273 276 279 280 282 283 284 284 285 285 286 287 287 288 290 291 292 293 293 294 295 295 295 294 295 294 294 295 294 294 295 295 295 295 295 295 294 291 292 294 294 293 290 290 289 289 289 289 289 288 288 288 288 287 288 288 288 288 289 288 288 289 290 290 288
260 259 259 259 260 261 261 262 263 265 266 267 267 267 268 269 270 271 271 272 274 277 279 280 281 282 283 284 285 285 286 287 288 288 289 291 292 293 294 295 296 295 295 294 294 294 295 295 294 293 294 294 294 295 295 295 293 292 293 294 293 292 290 289 289 289 288 288 288 288 287 287 287 287 287 287 288 288 288 288 288 288 289 289 290
259 258 259 259 260 261 261 263 265 268 269 270 271 270 269 270 271 272 273 275 277 279 280 282 283 283 283 283 284 285 286 287 288 289 289 291 293 294 295 296 296 294 295 295 295 296 294 294 293 293 293 293 294 295 295 294 292 293 293 293 292 291 289 289 288 288 288 288 287 288 287 288 288 287 287 288 288 288 288 288 288 288 288 287 286
258 257 258 259 260 261 263 265 267 268 268 269 270 271 271 271 271 273 275 276 279 280 280 281 281 282 283 283 284 286 287 288 288 289 290 290 292 294 295 296 296 295 294 294 294 295 294 294 293 293 293 293 293 294 294 293 293 293 292 292 290 290 289 289 288 288 287 287 288 288 288 288 288 288 288 288 288 288 288 288 286 285 285 283 279
257 257 258 260 261 262 263 265 266 267 267 268 269 271 273 274 274 276 278 281 281 281 281 282 282 283 283 284 285 286 287 288 288 289 289 289 291 293 294 295 294 294 294 294 293 294 294 293 292 292 292 292 292 292 291 292 292 291 291 290 290 289 289 289 288 288 288 288 288 288 288 288 288 288 288 288 287 287 287 287 286 285 284 283 281
256 257 258 260 261 262 263 264 265 265 266 267 268 270 272 275 278 280 281 282 283 283 283 283 283 283 284 285 286 287 287 288 289 289 289 290 290 291 293 294 293 293 293 293 292 293 292 292 292 291 292 291 291 291 291 291 290 290 290 290 290 290 289 289 288 288 288 288 288 288 288 288 288 287 287 287 287 287 287 287 286 286 285 285 285
256 256 258 260 261 262 263 265 264 264 265 266 266 267 269 272 275 279 283 283 283 283 284 284 284 285 285 286 286 287 287 288 288 289 289 289 291 292 293 293 293 293 294 293 293 292 292 291 291 291 291 290 290 289 290 290 290 289 290 290 290 290 289 289 288 288 289 289 288 287 286 287 287 287 287 287 287 287 287 286 286 285 285 285 284
256 257 259 260 261 263 263 263 263 263 264 265 266 267 268 270 273 277 282 285 285 285 285 285 285 286 286 286 286 286 287 287 288 290 289 291 290 292 292 293 293 294 294 293 291 291 291 290 289 289 289 289 289 289 289 289 289 289 289 289 290 289 289 288 288 288 288 288 287 287 287 287 287 287 287 287 287 286 286 286 286 286 285 285 284
256 257 259 259 261 262 262 262 262 263 263 263 264 265 269 272 273 274 276 281 285 287 287 285 286 286 286 286 287 287 287 288 290 291 291 291 292 293 293 294 293 293 293 293 292 291 291 290 289 289 289 289 289 288 288 288 288 288 288 289 289 289 288 288 288 288 288 287 287 287 287 287 287 287 287 286 286 286 286 286 286 286 284 284 283
256 257 258 259 261 261 261 261 261 262 262 262 263 263 264 266 271 273 274 276 278 279 281 283 284 286 286 286 287 289 290 290 291 291 291 292 292 292 293 293 293 293 293 291 291 291 290 289 289 289 289 289 289 289 288 288 288 288 288 288 289 288 288 288 288 288 287 287 287 287 287 287 287 286 286 286 286 286 286 286 286 286 285 285 284
256 257 258 259 260 261 261 261 261 261 261 261 261 262 262 262 264 269 272 273 276 277 278 278 279 281 283 285 286 287 288 290 291 291 291 291 292 292 293 293 293 293 293 293 291 290 291 290 289 290 289 289 289 289 289 288 288 288 288 287 288 288 288 288 288 288 288 287 287 287 287 287 287 286 286 286 286 286 286 285 286 285 285 285 284
256 257 258 259 260 260 260 260 260 260 260 260 260 261 260 260 260 261 264 269 272 273 274 276 277 278 279 280 284 286 287 289 290 291 290 291 291 292 292 293 293 293 293 292 291 290 290 290 290 290 289 289 290 289 289 289 289 288 288 288 288 288 288 288 288 288 288 288 288 287 287 287 287 287 286 286 286 286 285 285 286 286 285 284 284
256 257 258 259 259 259 259 259 259 259 260 259 259 260 260 260 260 260 260 261 262 266 270 272 274 275 276 277 280 283 287 289 290 290 290 290 291 292 292 291 293 294 292 291 291 290 291 290 290 290 290 290 290 290 289 289 289 289 289 289 289 288 288 289 288 288 288 288 288 288 288 288 287 287 287 287 287 287 286 285 286 285 285 285 284
256 257 259 260 259 259 259 259 259 259 259 258 259 259 259 259 260 259 258 258 259 259 260 264 269 273 271 272 275 278 280 281 282 285 288 290 291 292 292 290 290 291 291 291 291 291 290 290 290 290 290 290 290 290 290 290 290 289 289 289 289 289 288 288 288 288 288 288 288 288 288 288 288 288 287 286 286 286 286 286 285 285 285 285 285
255 256 258 259 259 259 258 258 259 258 258 258 258 258 259 259 258 258 258 258 258 258 258 261 264 267 270 270 272 273 276 278 279 279 280 282 288 292 288 288 289 290 290 291 291 291 291 291 291 290 290 290 290 290 290 290 290 290 290 290 289 289 289 289 288 288 289 289 288 288 288 288 288 288 288 287 287 286 286 286 286 286 286 285 285
254 255 257 258 258 258 258 258 258 258 259 258 258 257 258 258 258 257 257 257 257 257 257 258 262 262 264 263 266 268 272 274 275 275 275 275 276 276 278 284 286 288 289 289 288 288 289 289 290 290 290 290 290 290 290 290 290 290 290 290 290 290 289 289 289 288 289 289 289 289 288 288 288 288 287 287 287 287 287 286 286 286 285 285 285
254 255 256 258 258 258 257 257 257 258 257 257 257 257 257 256 257 256 256 256 256 256 256 256 261 260 259 259 264 263 264 268 270 268 268 268 265 265 267 269 272 275 279 283 286 287 287 288 288 288 289 290 290 290 290 290 290 290 290 290 290 290 289 289 288 289 289 289 289 289 289 289 288 288 288 288 287 287 287 287 286 286 285 285 285
254 256 258 259 259 257 256 256 256 256 256 256 256 256 256 255 255 255 255 255 255 255 255 255 256 259 260 260 258 260 260 259 259 259 260 260 261 262 263 264 266 268 269 271 273 276 278 281 284 287 288 289 289 289 290 290 290 290 290 290 290 290 289 289 289 289 289 289 289 289 289 289 289 289 288 288 288 287 287 287 286 286 285 285 285
253 254 256 258 256 256 256 256 256 256 255 255 255 255 255 255 254 254 254 254 254 254 254 254 254 257 260 261 259 257 256 256 257 258 258 258 259 259 260 261 262 264 266 266 268 269 269 270 271 273 276 282 287 288 289 289 290 290 290 290 289 289 289 289 289 289 289 289 289 289 289 289 289 289 288 288 288 288 287 287 286 286 286 286 285
252 254 255 257 256 255 255 255 255 255 255 255 254 254 254 254 254 254 254 254 254 254 254 254 254 255 260 261 265 261 255 255 255 256 257 257 257 257 258 259 261 261 263 265 266 266 267 267 267 268 268 269 272 276 282 287 288 289 289 289 289 289 289 289 289 289 289 289 289 289 289 289 289 288 288 288 288 288 288 287 286 286 286 286 285
252 253 253 254 254 254 254 254 254 255 255 254 254 254 254 254 254 254 254 253 253 253 253 253 254 254 259 265 263 263 256 255 255 255 255 256 256 257 257 258 260 261 262 262 264 265 265 266 266 266 266 266 267 268 270 271 278 286 288 288 288 288 288 289 289 289 289 289 289 289 289 289 288 288 288 287 287 287 287 286 286 286 286 285 285
252 253 253 254 253 253 253 253 254 253 254 254 254 254 254 253 253 253 253 253 253 253 252 253 253 254 254 260 259 260 254 254 254 254 254 254 255 256 257 258 258 258 260 262 263 264 265 265 266 266 266 266 267 267 267 268 269 273 280 284 285 286 286 287 287 288 288 288 288 288 288 288 287 287 287 286 286 286 286 286 285 285 285 284 284
251 252 253 253 253 253 253 253 253 253 253 254 254 254 253 253 253 253 253 252 252 252 252 252 253 253 253 254 254 253 253 253 253 253 253 254 254 254 255 256 258 258 259 260 262 263 264 264 265 266 266 266 267 267 267 267 268 268 268 270 272 272 273 275 279 284 286 286 286 286 286 285 285 286 285 284 285 285 284 284 283 283 283 282 282
251 251 251 251 252 252 252 253 253 253 253 253 253 253 253 252 252 252 252 252 252 252 252 252 252 252 252 252 252 252 252 252 253 253 253 253 253 254 254 255 256 257 258 259 260 261 262 263 264 264 265 265 266 266 267 267 268 268 268 268 268 269 270 271 272 278 284 285 284 284 284 283 283 284 283 283 283 283 282 282 282 280 281 280 280
250 250 251 251 251 252 252 252 252 252 252 252 252 251 252 252 252 251 252 252 252 251 251 252 252 252 252 252 252 252 252 252 252 252 252 253 253 253 254 254 255 255 256 257 258 260 261 261 262 263 264 265 265 266 266 267 267 267 268 268 268 269 270 272 273 275 278 281 282 282 281 281 282 281 280 281 281 281 281 281 280 280 280 280 280
249 250 250 250 250 251 251 251 251 251 251 251 251 251 251 251 251 251 251 251 251 251 251 251 251 251 251 251 251 251 252 252 251 251 252 252 253 253 254 254 254 255 257 257 257 257 259 260 261 262 263 264 265 265 265 266 266 267 267 268 268 268 270 271 272 273 274 275 277 278 278 278 277 278 278 279 279 278 278 278 278 279 279 278 278
249 249 249 250 250 250 250 250 250 251 250 250 251 251 251 251 250 250 250 250 250 250 250 250 250 251 251 251 251 251 251 251 251 252 252 252 252 253 253 253 253 254 256 256 257 257 258 258 259 260 261 262 264 265 265 265 266 266 267 267 268 268 269 270 271 272 273 273 273 274 274 273 273 274 274 275 275 275 274 274 274 274 274 275 275
249 249 249 249 249 249 249 249 250 249 249 250 250 250 250 250 250 250 250 250 250 250 250 249 249 250 250 250 251 251 251 251 251 251 251 251 251 252 252 253 253 254 254 255 256 256 257 257 258 259 260 261 262 263 265 265 265 266 266 267 268 268 268 269 270 270 271 272 272 272 272 272 271 271 271 271 272 272 271 272 272 272 272 273 273
249 249 248 248 248 248 249 249 249 249 249 249 249 249 249 250 249 249 249 249 249 249 249 249 249 249 249 250 250 250 250 250 250 250 250 250 251 251 252 252 252 253 253 253 253 254 254 255 256 257 259 260 261 262 263 264 265 266 266 267 268 267 267 267 268 269 269 269 270 271 271 270 270 270 270 270 270 270 270 270 271 271 271 271 271
250 250 249 248 248 248 248 248 248 248 248 248 248 248 248 248 249 249 249 249 249 249 249 249 249 249 249 249 250 249 249 250 250 250 249 250 250 250 251 251 251 252 252 253 253 253 253 254 255 256 257 259 260 261 262 264 265 265 266 267 267 267 267 267 267 267 268 268 268 268 268 268 268 268 269 269 269 269 269 269 269 269 269 269 269
Wind_Speed
18 18 17 19 19 19 20 18 18 19 21 19 17 16 17 18 17 15 16 15 15 9 7 8 7 7 7 6 6 6 6 7 8 10 11 13 14 15 16 19 20 16 17 19 16 17 18 19 17 16 16 16 14 14 13 13 13 13 12 12 8 5 10 13 13 9 4 3 7 9 10 9 8 7 9 7 7 5 6 6 8 8 8 7 8
20 20 19 18 20 20 19 18 19 18 20 21 19 16 14 14 16 18 17 16 13 12 10 7 7 7 7 7 6 5 5 7 8 9 11 12 14 14 15 18 19 18 18 18 17 16 16 17 16 14 15 19 16 16 15 14 14 13 13 14 12 8 6 9 11 15 9 3 5 4 9 10 9 6 11 10 8 5 7 5 4 6 8 6 7
19 20 19 20 21 19 19 19 18 21 21 19 20 17 14 13 14 16 17 17 15 12 11 9 7 7 7 7 6 5 5 6 7 9 11 12 14 14 15 18 19 19 19 20 19 18 18 17 17 15 13 15 17 16 15 15 14 15 14 12 12 12 7 5 11 12 15 8 8 9 7 8 8 8 7 7 7 7 9 7 7 5 4 6 7
18 18 19 21 21 21 19 18 20 20 19 18 19 19 18 15 13 15 16 15 16 15 14 11 10 7 7 7 6 6 5 5 7 9 11 12 13 15 15 18 19 19 21 21 19 19 19 18 18 17 15 16 15 14 15 15 15 14 14 12 12 12 11 10 8 10 9 11 5 10 9 10 3 5 6 7 8 7 7 5 4 6 5 5 6
18 19 20 22 21 20 21 20 19 21 21 18 18 18 18 16 14 15 15 16 16 14 14 11 9 7 7 7 7 6 6 5 7 10 11 11 12 15 15 16 19 20 20 20 20 21 21 20 19 18 17 17 15 14 15 18 15 14 14 12 12 10 10 11 10 10 11 13 8 3 5 4 3 7 10 11 7 6 4 5 5 7 5 3 3
17 19 19 20 21 22 21 20 19 20 20 19 17 17 16 17 16 14 14 16 16 16 14 12 9 9 8 7 7 7 6 6 7 9 11 12 12 13 15 16 17 18 19 19 21 20 21 20 19 19 19 19 18 16 16 17 15 15 15 13 12 11 11 11 11 11 12 11 12 8 7 8 6 5 6 9 12 9 6 5 4 4 6 6 4
19 18 20 20 20 21 21 20 18 18 18 18 16 15 15 16 17 16 13 14 14 15 16 15 11 10 9 8 7 7 7 7 8 9 11 12 12 13 15 17 18 18 18 20 20 20 21 20 20 20 21 20 20 18 17 17 15 15 15 15 14 13 12 11 12 12 11 12 8 12 12 6 10 11 5 5 6 9 15 10 5 2 2 7 7
18 19 20 23 21 23 22 21 22 21 18 18 18 16 16 16 16 14 13 14 14 14 16 16 15 11 12 9 7 7 7 8 8 9 10 11 12 13 15 16 17 17 17 19 20 19 19 19 20 21 21 20 19 19 19 17 14 13 13 14 14 15 13 11 11 11 11 12 13 10 7 10 5 4 5 8 7 3 3 9 15 10 8 5 3
20 21 21 22 24 19 20 21 19 20 20 19 18 17 17 16 16 15 13 13 12 13 14 15 17 16 13 9 8 7 8 9 8 8 9 11 12 12 15 15 17 18 17 18 19 19 18 18 18 19 20 21 23 22 21 19 15 15 14 14 15 15 13 13 12 12 11 12 10 9 11 10 10 13 11 11 13 14 11 8 9 9 10 8 2
24 20 20 23 19 22 23 20 21 20 21 20 20 20 20 17 16 16 15 15 14 13 12 14 16 17 16 15 12 10 10 8 11 15 13 11 12 12 14 13 15 16 17 17 17 19 20 18 17 23 23 24 23 23 23 23 22 18 15 14 16 15 15 14 13 13 13 13 13 13 12 11 11 13 14 13 12 10 11 9 11 8 7 6 3
18 20 24 19 22 20 22 23 20 21 20 20 17 16 16 14 16 16 15 14 16 16 14 14 14 14 16 14 13 12 10 10 15 14 17 19 14 12 13 13 14 15 16 17 16 17 17 19 16 19 21 23 22 24 22 25 24 23 22 21 18 18 16 16 15 14 14 13 12 13 15 15 14 14 17 17 14 15 14 13 14 13 13 14 12
27 26 24 24 23 24 21 20 21 21 17 15 14 17 15 17 16 16 15 16 14 14 15 13 14 14 14 16 15 12 11 12 16 16 17 18 17 13 12 13 13 15 17 17 17 17 18 17 14 14 15 18 18 19 22 24 24 24 25 25 26 27 27 22 18 15 16 15 15 16 15 16 17 15 13 12 12 11 12 11 12 15 14 14 13
23 23 20 19 19 17 22 23 21 18 18 17 17 15 16 16 17 17 17 15 15 16 16 14 13 14 15 16 15 13 12 13 16 17 17 17 19 17 11 14 13 15 17 18 19 18 17 16 15 13 14 21 17 18 18 19 23 26 25 25 25 27 26 29 29 24 19 19 19 17 18 17 17 17 16 19 18 18 15 13 13 14 16 16 14
19 20 23 23 23 23 20 20 21 20 17 15 16 16 15 15 17 17 16 14 15 14 15 14 13 14 15 15 13 12 12 14 17 17 17 18 19 17 12 14 13 16 18 18 18 18 19 18 16 15 14 16 14 16 16 17 16 16 16 16 15 19 23 27 28 29 26 21 21 21 17 16 19 19 18 18 20 18 17 16 17 17 18 20 15
20 24 22 17 16 18 21 21 22 21 20 19 18 18 18 18 18 16 15 16 14 12 12 13 13 14 15 14 13 11 11 17 17 18 17 19 20 17 12 12 12 15 18 19 18 18 18 18 18 17 17 18 17 19 18 18 17 16 15 14 13 13 13 13 14 13 12 10 15 18 18 15 12 12 12 11 16 15 16 18 19 16 9 7 10
22 18 20 22 21 20 20 21 21 22 21 20 20 20 19 17 18 16 14 14 16 13 12 12 15 15 14 14 14 15 13 21 18 17 18 19 21 12 11 11 12 13 15 18 18 17 17 18 16 17 18 19 23 29 23 18 18 19 18 15 14 13 13 14 18 17 17 15 15 16 16 18 17 17 16 13 9 6 9 10 10 9 10 9 7
23 23 22 21 21 21 21 22 22 22 21 21 20 18 18 17 16 13 14 14 15 15 13 12 13 14 16 14 14 14 13 15 16 18 19 20 15 10 10 10 11 13 14 16 17 17 17 18 17 16 17 18 24 29 27 24 19 21 18 17 14 13 11 9 14 18 18 18 18 17 17 18 17 19 24 25 17 10 8 9 11 11 11 10 6
19 20 22 22 22 22 22 22 23 23 22 22 22 21 19 16 17 15 15 15 15 15 12 10 12 14 16 16 14 13 13 14 17 18 19 19 16 11 10 10 12 12 12 14 14 14 18 25 22 20 19 19 24 28 29 25 20 21 19 18 16 15 13 11 9 11 18 18 18 18 19 19 20 22 23 24 25 19 16 16 15 14 15 14 14
22 23 24 24 23 22 21 22 22 22 23 22 20 21 19 17 16 14 14 14 15 15 14 12 13 14 14 15 17 16 13 13 17 19 19 20 15 10 11 10 12 13 12 12 13 13 15 19 25 21 21 21 28 28 30 25 20 20 20 19 19 19 17 15 14 13 11 10 9 12 12 17 17 16 18 26 25 21 17 17 15 15 15 13 10
23 22 23 23 21 21 21 22 22 21 22 22 19 17 16 16 16 15 14 13 14 14 13 11 13 13 13 11 10 11 12 12 13 20 19 20 21 13 10 11 13 14 13 13 12 12 14 15 20 25 25 25 28 30 31 31 23 20 19 18 20 21 15 16 17 17 16 16 13 13 14 13 14 15 17 20 20 19 16 12 15 15 15 13 10
23 25 24 24 23 24 22 19 21 21 19 18 18 17 14 14 14 14 14 13 13 13 14 13 13 15 12 8 8 9 10 11 12 19 19 20 21 18 11 13 13 14 14 14 14 14 13 14 14 22 27 28 29 31 30 30 26 21 22 21 22 19 17 16 19 22 17 15 13 12 12 12 12 12 14 16 17 16 15 14 15 15 15 15 14
22 22 24 24 23 23 22 21 19 17 17 15 14 15 14 13 13 13 12 13 15 15 14 12 12 10 8 9 9 11 12 16 13 17 21 21 20 20 13 13 14 14 14 13 14 14 15 14 13 19 26 27 29 31 32 30 29 18 22 25 22 22 20 16 14 13 13 13 13 12 11 11 12 12 13 14 15 16 15 13 14 15 13 16 19
23 23 23 23 23 23 21 21 18 14 15 14 14 13 12 11 13 13 13 14 15 15 13 12 11 10 10 10 10 11 12 12 19 16 19 20 20 19 22 16 19 15 15 15 15 14 13 14 15 22 24 26 27 30 29 30 25 20 25 23 24 27 22 12 12 12 11 12 12 13 13 13 13 13 14 15 15 15 15 13 14 15 13 11 12
21 22 21 21 19 19 20 18 15 17 18 18 16 14 12 11 11 10 11 12 12 12 10 10 9 10 11 11 11 11 11 11 14 19 16 19 18 18 21 22 20 15 15 15 14 13 12 12 14 25 26 27 28 28 28 27 21 24 21 21 21 20 14 13 15 15 15 15 15 15 14 14 14 14 14 15 15 16 16 15 15 16 14 8 6
23 23 24 22 18 15 19 18 19 19 19 17 16 13 10 9 9 10 11 12 11 9 9 8 9 10 10 11 11 10 10 9 9 12 18 16 16 16 21 25 23 23 16 11 13 14 17 22 24 26 24 25 28 28 25 28 30 24 22 24 22 13 13 14 15 15 16 17 18 17 15 15 16 16 14 13 14 13 13 12 8 6 5 5 3
24 25 24 23 25 26 24 19 20 21 21 15 14 13 14 9 8 9 9 9 8 8 9 9 10 10 10 10 10 11 10 8 8 8 9 11 11 16 22 26 25 24 21 15 19 21 22 24 27 27 26 23 20 16 14 18 24 23 24 23 14 14 13 13 13 16 18 17 16 16 15 13 11 10 12 12 14 16 15 13 11 10 10 9 6
22 22 24 22 24 23 18 17 20 19 18 16 15 14 14 13 10 10 9 8 8 8 8 9 9 9 9 9 9 9 9 7 7 6 5 5 6 10 16 18 21 21 15 12 16 15 18 19 17 20 18 23 23 22 21 20 17 15 12 13 12 15 14 13 14 16 15 14 14 13 11 10 9 10 12 14 15 13 13 15 15 14 13 12 13
20 21 23 22 19 15 18 26 26 18 18 17 17 17 15 13 14 14 11 8 8 8 8 8 8 7 7 7 7 8 8 7 6 6 5 6 6 8 11 12 12 12 11 11 12 14 15 16 19 15 14 13 12 8 7 9 12 13 14 15 14 14 16 18 12 7 9 11 10 9 8 10 12 13 12 11 12 11 12 12 14 13 13 12 12
21 21 20 19 15 17 18 18 18 19 18 19 16 13 13 16 16 16 16 10 7 8 9 8 6 5 5 6 7 7 7 7 6 5 4 7 8 8 10 11 11 13 15 16 12 10 11 11 9 11 12 14 14 14 13 13 13 14 16 15 13 12 11 11 13 14 12 10 12 13 13 11 11 9 9 10 10 10 11 11 10 12 11 11 15
21 19 19 18 14 17 18 17 19 18 18 18 20 21 23 23 18 15 16 24 22 18 14 9 7 5 6 6 6 7 7 6 6 7 8 10 12 14 13 13 13 10 13 20 16 13 12 13 13 14 14 14 14 13 14 14 14 14 13 14 13 12 13 13 13 12 10 12 12 12 12 12 12 12 12 12 10 9 11 14 13 12 13 15 14
17 18 17 14 18 19 18 19 19 18 17 18 17 18 19 22 28 31 31 29 30 36 28 22 20 18 13 9 8 13 14 11 8 9 10 12 13 13 14 16 16 14 17 14 11 13 13 13 13 13 13 13 13 14 14 14 14 14 14 13 13 14 13 12 12 11 12 11 11 11 12 13 13 13 14 13 13 12 11 11 10 11 14 15 15
16 16 17 14 17 19 18 19 19 18 18 18 17 17 18 19 21 28 33 29 31 30 30 31 32 31 29 17 9 7 9 10 9 9 10 12 13 13 15 17 18 21 21 20 13 12 13 14 14 13 13 14 14 13 13 14 14 14 13 13 14 13 14 13 12 12 12 12 12 12 12 13 12 12 12 13 13 13 13 14 13 14 13 11 13
17 17 17 17 18 19 18 18 18 17 19 20 18 18 18 17 19 20 24 29 28 27 30 32 33 32 29 30 30 16 11 10 10 9 9 10 12 14 16 17 19 21 23 15 11 11 11 12 13 12 13 14 13 13 13 14 13 13 14 15 15 14 13 11 11 11 11 12 12 12 13 13 12 12 12 13 14 14 15 15 15 14 14 14 14
15 14 15 16 15 14 16 17 17 16 17 17 17 16 16 17 17 16 17 19 23 26 29 31 33 32 31 30 32 33 22 8 9 9 7 6 9 12 15 15 19 21 18 13 13 12 12 12 11 12 12 12 12 12 12 12 13 13 13 14 13 12 13 12 12 14 12 13 13 13 13 13 13 14 14 14 14 14 13 14 15 15 14 15 15
14 16 23 21 13 14 13 15 16 16 16 17 17 16 17 17 16 16 16 17 16 15 15 16 23 30 25 22 32 33 32 31 30 23 12 3 7 8 11 10 12 12 11 8 9 9 10 10 10 11 11 11 12 13 13 13 12 13 13 12 10 10 11 13 15 15 13 12 12 12 13 14 14 14 14 14 14 14 15 15 14 16 16 15 14
15 13 14 17 15 14 14 14 14 14 16 16 15 15 16 15 16 16 15 14 16 15 15 12 11 15 33 34 38 32 31 29 29 29 28 28 11 8 7 7 8 10 10 9 8 8 8 9 9 9 9 9 9 10 11 12 12 12 11 11 11 12 12 13 13 12 13 14 14 14 12 11 12 13 13 13 16 16 14 15 15 16 16 15 14
13 13 13 14 14 13 13 13 11 15 16 15 15 14 14 15 15 14 15 15 15 14 13 13 17 19 25 22 30 28 30 26 30 31 32 30 31 17 10 7 3 3 4 4 2 3 4 4 5 7 8 9 9 10 10 11 10 10 10 11 11 12 12 12 12 12 13 13 13 13 14 14 13 12 12 13 13 13 12 12 13 14 15 16 15
12 13 13 15 14 14 14 13 14 19 14 15 14 13 14 14 15 15 14 15 17 17 15 14 15 17 20 18 26 18 16 26 36 33 28 28 21 14 12 10 11 10 9 9 8 4 3 3 4 4 4 6 8 8 8 9 9 10 10 10 10 10 13 12 13 13 13 12 13 13 14 14 13 12 12 14 15 14 14 13 13 13 14 15 13
12 19 24 26 19 15 14 13 13 14 14 14 13 14 15 15 15 15 14 13 15 16 15 13 12 16 19 16 17 18 20 19 16 15 14 12 13 12 11 11 12 12 11 9 10 10 9 9 7 4 3 4 4 6 7 9 9 9 10 10 10 9 11 10 12 13 13 13 12 11 12 12 12 13 14 14 14 13 14 14 14 14 14 14 16
12 11 14 23 13 15 13 12 12 13 14 13 14 14 14 15 14 14 14 14 14 15 15 14 15 11 15 20 20 16 15 17 14 11 13 15 13 13 12 13 13 11 11 11 11 10 9 9 9 8 10 9 4 1 3 5 8 9 10 10 11 11 12 12 12 12 13 12 12 12 12 12 12 12 12 13 13 13 13 14 14 14 13 13 13
10 11 11 14 17 13 12 12 11 13 12 13 12 13 14 14 13 14 13 13 13 13 13 14 13 14 17 27 35 27 13 12 12 13 13 13 13 13 13 10 10 12 10 11 11 11 11 9 10 9 9 9 9 10 8 4 1 5 7 8 9 10 11 11 11 12 12 12 12 12 12 12 12 12 13 13 14 13 12 11 10 11 11 11 11
10 10 10 10 12 11 12 12 12 13 12 13 14 14 15 13 12 13 13 14 13 13 12 12 12 12 20 40 33 35 18 11 12 13 13 13 11 12 12 11 13 14 12 10 10 10 9 10 11 11 11 11 11 10 9 9 9 4 1 3 5 6 7 8 9 9 10 10 11 11 11 11 11 12 13 11 10 10 10 11 11 11 11 12 11
9 9 9 10 10 11 11 11 12 12 13 13 12 12 13 13 12 12 12 12 13 14 12 13 12 13 15 27 29 30 15 14 13 14 13 12 13 12 12 15 13 12 11 11 13 11 10 12 13 12 10 10 12 11 10 10 8 9 9 6 4 3 1 2 5 7 8 9 9 10 10 9 9 9 8 8 9 9 10 10 10 10 10 10 10
8 9 9 9 9 9 9 10 11 11 10 11 11 11 13 11 10 11 12 12 13 13 12 12 12 12 12 15 18 17 14 14 13 13 12 13 12 12 12 12 12 14 14 12 13 13 13 13 13 13 13 13 12 13 12 10 10 10 9 8 7 8 8 7 5 2 2 5 6 6 7 7 8 7 7 7 8 9 9 8 9 9 8 9 9
8 8 9 9 9 9 10 10 10 10 11 10 10 9 11 12 11 10 11 12 12 12 12 12 12 12 13 14 14 14 13 12 13 13 13 12 12 10 10 10 11 13 13 14 14 14 15 14 13 14 15 14 13 13 13 13 12 12 10 9 8 9 8 8 7 5 1 5 5 6 6 6 7 7 7 7 7 8 8 8 8 8 8 8 9
7 7 9 8 9 10 10 10 10 9 10 11 11 12 12 12 11 11 11 12 11 11 10 11 10 11 12 11 12 13 13 12 12 12 12 12 12 10 10 9 9 9 10 10 12 15 15 14 14 14 14 14 14 13 13 13 13 13 12 11 10 8 8 7 6 8 7 5 4 5 5 5 5 4 5 6 5 6 6 7 7 8 8 8 8
7 7 7 8 8 9 9 9 9 10 10 10 11 11 10 11 10 11 11 13 12 11 11 10 10 11 10 11 12 12 12 12 11 12 12 11 12 13 14 12 11 12 13 14 14 10 12 15 14 14 14 14 14 15 14 13 13 12 12 12 12 12 10 8 8 8 8 8 7 6 6 6 6 6 6 6 6 6 6 5 6 7 6 7 7
6 7 6 7 7 7 8 9 10 10 9 10 9 10 9 10 11 11 10 11 12 12 11 11 11 10 11 10 11 11 11 10 10 11 10 10 10 10 13 14 12 14 13 13 13 13 14 14 14 14 14 15 15 14 14 14 13 14 13 13 13 14 16 15 9 10 8 9 9 9 9 8 7 7 6 7 7 6 7 6 6 6 6 6 5
5 5 6 7 7 8 8 8 9 9 9 9 8 9 9 9 10 9 9 9 11 10 10 10 10 10 10 10 10 10 10 10 10 10 10 10 10 9 10 10 10 11 12 14 15 14 14 14 14 13 14 14 14 14 14 15 15 14 15 14 18 27 25 24 14 11 12 10 9 10 10 10 10 9 9 9 8 8 8 8 8 8 7 7 7
4 5 4 5 6 6 7 6 6 7 8 8 8 8 9 8 8 9 9 9 9 9 9 10 9 9 10 10 11 10 10 10 10 10 10 9 10 10 10 10 10 10 9 9 10 10 10 11 13 13 13 14 14 14 13 14 14 14 14 17 26 28 26 25 24 22 14 9 10 9 10 10 10 10 9 9 9 10 9 8 8 7 8 8 8
5 5 5 4 5 5 6 6 7 7 7 8 8 8 8 8 8 8 8 8 9 8 8 9 8 9 9 8 8 9 10 10 9 9 9 10 10 10 10 11 11 11 10 10 10 9 9 9 9 11 10 13 14 13 13 13 14 16 21 27 28 27 28 24 16 20 22 15 10 11 11 11 11 11 9 9 9 10 10 10 9 9 8 7 7
Wind_Direction
315 314 313 312 311 310 309 309 310 309 304 297 292 294 297 299 300 299 301 301 302 272 224 199 197 210 225 230 246 262 283 295 298 293 290 284 262 227 191 183 180 179 176 176 175 179 177 176 177 175 169 163 163 157 157 158 158 165 168 165 163 169 170 160 154 130 70 82 137 157 157 146 148 158 146 143 149 161 151 154 151 157 167 182 183
322 319 317 312 311 310 310 309 306 303 302 300 293 291 291 298 303 306 302 301 301 295 270 232 201 201 215 229 232 246 266 286 294 293 290 286 277 235 201 184 180 174 174 178 177 174 179 176 174 171 177 167 161 160 158 158 160 166 171 171 164 168 182 148 149 150 148 116 94 109 147 163 145 167 158 151 157 148 147 147 150 151 162 158 165
318 317 313 313 312 309 308 306 304 302 301 301 300 295 293 298 303 301 302 300 297 291 276 255 232 202 208 221 228 239 250 277 290 292 290 286 283 258 211 186 181 174 176 180 179 175 174 177 175 173 175 167 164 162 158 159 160 166 171 169 163 162 153 122 140 148 149 151 146 144 159 160 156 162 158 153 146 149 145 151 150 143 138 151 157
318 315 313 310 309 306 304 304 303 300 298 297 297 302 303 303 302 298 300 301 302 303 298 269 239 220 210 218 229 237 248 264 284 287 287 288 287 275 234 193 181 179 178 179 177 176 177 177 177 174 174 170 168 163 165 160 163 169 165 165 162 159 155 145 146 138 145 130 169 159 164 156 129 127 123 120 136 137 141 122 110 126 135 146 153
316 314 313 311 310 308 306 305 302 300 298 296 295 297 298 299 298 297 300 300 299 296 293 280 255 238 225 221 231 241 244 254 276 286 288 287 285 281 248 209 185 181 179 178 177 178 178 180 177 175 175 173 170 170 169 165 168 168 168 163 163 155 151 151 147 141 143 148 140 108 135 108 104 142 150 138 120 98 89 115 140 140 123 117 124
314 313 311 311 311 310 308 305 302 299 297 295 293 295 294 294 295 295 296 296 299 296 290 281 262 252 241 231 229 241 246 249 263 276 285 288 286 281 262 216 192 182 179 177 178 179 178 181 177 177 178 177 177 175 172 167 163 168 167 165 163 154 148 147 146 149 147 149 144 133 158 149 128 145 169 145 140 128 104 86 77 100 130 123 139
315 313 312 308 307 308 306 304 301 298 297 294 294 294 294 293 291 291 292 291 293 296 295 289 269 248 243 233 232 236 248 253 261 269 278 283 281 279 269 226 194 181 181 178 178 180 180 179 178 180 182 183 175 172 173 170 170 170 168 165 163 159 148 147 148 145 143 140 146 154 151 153 150 156 166 139 135 151 151 136 118 100 136 154 147
314 314 313 310 306 309 307 304 303 301 298 297 295 293 292 290 288 286 289 291 293 293 297 299 297 277 251 233 228 234 249 259 259 264 269 277 278 274 273 233 197 181 180 180 178 180 180 180 180 182 183 181 177 174 170 171 167 165 167 161 162 159 152 145 143 144 144 147 151 155 155 144 106 74 108 129 123 92 184 156 156 165 175 184 179
315 315 310 308 309 304 305 303 299 298 297 294 292 292 292 292 293 289 287 287 286 284 285 288 286 283 280 269 261 252 254 255 255 254 264 272 275 276 275 245 202 180 179 180 179 177 179 182 185 185 183 180 179 173 173 168 165 166 166 161 159 155 150 150 148 146 148 146 146 148 149 155 157 149 156 164 166 169 176 180 167 156 148 139 125
319 312 314 308 302 305 302 303 301 298 296 294 294 295 294 292 287 283 280 280 281 281 277 278 279 278 275 268 263 262 257 255 251 248 247 257 272 277 279 254 209 183 177 181 181 179 177 182 186 183 181 179 177 176 171 166 168 166 163 161 157 153 154 153 156 157 154 157 158 155 154 161 164 168 164 179 177 159 150 140 139 133 116 107 89
309 311 308 305 309 303 304 301 298 296 296 292 289 286 285 284 283 279 276 276 279 281 275 271 271 275 274 269 262 257 255 251 247 240 247 253 260 270 271 265 220 188 179 180 182 180 182 183 181 180 180 179 175 175 172 171 168 164 164 164 162 158 156 158 162 160 160 161 161 162 165 167 175 175 179 175 174 164 165 165 157 154 156 155 174
316 314 312 310 309 305 302 302 298 296 291 285 286 287 283 280 276 276 275 274 272 272 271 265 267 265 264 265 261 255 252 246 241 241 245 253 258 262 267 265 233 195 180 183 183 181 182 182 177 174 179 181 176 173 174 173 171 172 172 171 171 168 165 164 163 165 165 161 167 175 167 175 176 180 181 166 163 163 170 158 157 162 165 174 172
311 312 303 297 296 299 300 298 300 295 290 289 288 288 286 287 288 287 280 272 269 267 267 262 256 262 261 257 252 247 247 239 239 242 244 249 256 259 261 259 237 204 185 184 183 182 181 179 177 175 178 178 175 172 172 175 177 177 176 178 179 176 175 171 168 169 169 165 170 176 182 175 176 189 180 174 168 169 166 166 167 173 179 180 186
305 303 309 306 308 306 304 301 296 295 293 290 289 286 285 282 283 283 279 268 263 264 266 268 269 266 264 262 251 242 239 242 243 243 243 247 256 260 255 253 240 207 188 183 183 181 179 179 178 176 170 170 173 174 172 172 176 176 176 179 183 187 182 179 177 172 171 172 172 180 189 175 182 183 183 170 166 170 168 177 177 177 183 190 183
308 312 310 300 295 299 303 303 300 297 294 290 288 287 285 285 283 279 281 283 272 261 259 261 259 255 255 258 260 252 244 243 243 242 244 249 256 261 254 252 239 214 191 180 181 181 179 178 178 176 170 172 175 174 172 173 173 175 173 174 177 180 183 183 179 175 176 173 178 179 175 183 182 166 165 176 180 174 177 178 179 178 151 73 60
300 294 305 307 311 312 304 296 294 294 293 291 288 287 286 279 276 275 274 274 273 269 260 258 264 263 255 247 247 248 248 249 242 239 244 250 257 258 254 246 235 213 196 179 177 179 176 176 175 175 174 177 177 174 174 169 170 172 173 174 175 179 187 188 179 175 174 175 179 179 179 178 171 162 165 163 157 122 104 91 87 107 129 139 133
304 312 316 317 310 304 301 298 296 295 292 288 286 283 280 276 273 272 271 270 269 260 252 250 255 259 257 247 239 242 244 240 234 241 247 251 254 252 248 241 226 209 197 182 177 176 176 174 170 174 179 183 179 174 169 164 170 173 174 173 175 176 184 178 181 178 177 177 176 173 166 165 160 161 160 159 161 142 119 131 161 154 154 150 148
315 313 306 304 310 310 308 304 300 296 292 286 282 279 276 274 275 272 273 275 276 273 260 251 249 254 255 247 237 239 242 240 239 241 245 247 245 246 242 233 215 201 196 183 176 174 177 175 175 175 178 184 178 174 169 167 172 174 173 171 173 181 184 176 168 177 175 173 169 166 164 163 156 157 165 166 160 157 161 177 174 166 175 170 171
314 312 315 316 311 307 301 292 286 283 282 279 276 278 276 270 270 268 266 266 266 267 261 259 263 260 254 241 230 232 240 243 239 244 245 248 248 240 238 224 210 197 186 183 177 172 175 178 178 178 179 177 175 173 170 171 174 175 174 172 179 185 185 172 169 162 162 165 168 160 164 160 156 161 168 168 169 174 183 176 164 176 176 178 161
312 314 306 304 303 303 301 299 294 289 285 282 275 265 264 267 266 265 266 264 268 268 264 258 258 252 246 238 230 231 240 244 240 246 247 247 246 238 229 217 201 192 185 178 175 174 173 177 183 179 176 172 176 177 176 174 174 175 171 179 182 189 176 172 174 169 171 173 170 166 166 164 164 165 168 172 175 179 182 178 179 174 174 172 169
315 309 310 308 305 301 296 286 285 282 271 267 266 264 259 256 258 260 261 262 261 262 258 258 259 263 259 239 232 237 237 243 245 243 244 245 242 233 223 212 199 186 184 177 176 172 176 180 180 182 175 172 176 182 180 180 177 173 180 185 188 177 160 174 177 172 169 170 163 163 162 166 169 169 172 175 177 178 182 180 182 185 175 171 172
314 315 309 307 305 300 293 286 277 272 268 262 261 260 255 250 254 256 256 258 262 261 257 253 252 253 261 258 254 253 248 244 246 247 244 242 239 226 219 210 195 182 180 180 178 176 175 178 179 180 176 174 177 181 183 183 180 180 190 189 173 155 169 175 170 170 169 165 164 164 167 169 169 173 174 177 180 180 181 179 186 192 194 182 176
318 315 311 306 304 297 292 288 287 288 288 276 258 255 256 253 250 253 255 257 259 261 260 261 263 266 264 258 253 250 249 249 242 242 241 236 233 225 214 209 190 183 180 181 182 178 174 173 173 173 174 174 179 182 182 183 183 193 191 180 166 167 165 162 163 169 168 166 165 174 177 175 175 178 176 177 181 180 182 182 185 191 197 200 199
316 314 310 303 294 298 299 297 299 312 313 311 299 276 258 248 249 249 252 254 256 251 246 243 248 255 257 261 255 250 248 244 241 235 235 231 229 222 210 202 187 186 184 182 180 170 165 171 170 174 174 175 179 182 184 182 188 193 180 167 162 161 163 167 171 175 172 174 179 183 186 186 182 179 182 179 177 180 182 182 188 194 194 187 177
321 318 320 315 306 299 310 310 318 320 319 314 309 303 265 249 245 248 248 250 250 250 251 253 255 254 257 256 258 255 247 243 237 232 226 226 224 217 206 198 190 184 182 182 171 173 173 168 167 173 175 175 179 181 182 185 190 183 170 171 168 159 172 177 177 173 176 185 189 188 186 186 187 185 174 172 174 175 179 185 169 145 132 106 89
324 324 324 325 327 326 317 316 325 323 318 314 312 311 302 270 250 255 255 248 241 243 248 250 247 250 255 255 259 258 254 246 235 228 220 221 219 212 202 197 190 185 181 174 177 173 169 165 165 171 174 174 174 177 182 189 190 175 170 169 160 170 179 182 185 180 185 186 185 187 187 180 181 172 169 170 172 182 180 171 161 164 161 156 134
322 325 327 326 329 325 320 330 328 326 322 324 320 317 317 311 287 261 254 259 254 244 250 246 245 245 244 250 255 261 257 250 235 219 206 196 200 203 198 197 189 184 180 172 171 167 165 166 169 170 173 174 174 179 182 181 175 167 164 173 178 177 177 187 191 192 187 181 182 184 175 173 163 152 168 179 188 185 176 172 174 178 174 177 182
325 324 327 331 324 321 330 331 329 324 327 328 326 325 320 316 317 313 299 273 248 260 257 251 250 244 251 254 259 259 260 253 231 215 196 186 190 190 190 185 181 180 177 172 170 167 168 170 166 165 164 162 164 152 156 159 167 166 174 183 188 189 185 182 185 206 195 181 167 146 135 151 171 185 178 180 183 177 175 175 181 179 179 171 181
327 327 332 330 315 331 333 334 329 330 328 328 324 319 318 322 322 315 304 268 265 276 257 261 257 259 265 264 261 264 264 253 242 224 192 185 186 185 182 185 183 182 182 166 157 152 150 147 147 157 162 167 169 172 172 172 178 180 180 184 188 187 177 175 185 190 187 173 170 171 169 164 169 163 170 179 182 176 177 180 181 176 177 183 193
330 335 337 334 326 335 337 337 333 334 335 333 332 328 329 332 336 338 343 347 323 274 258 263 267 282 287 269 267 275 268 260 238 201 193 187 192 189 187 179 177 175 165 156 152 153 160 160 165 169 173 173 174 171 172 174 176 179 184 187 184 183 187 189 189 178 172 182 177 170 169 168 171 174 176 177 172 174 182 186 181 179 176 190 195
331 335 338 334 334 340 338 336 335 336 337 337 336 338 336 335 338 346 351 349 4 16 13 359 345 324 290 278 293 288 289 272 225 208 192 188 188 190 182 171 162 153 146 145 155 159 160 166 171 173 174 175 175 175 174 175 177 178 181 182 186 190 192 191 186 175 176 178 175 178 174 173 176 176 177 177 174 174 176 188 186 187 194 192 192
331 333 333 323 336 344 341 338 335 338 341 341 342 346 344 340 336 341 345 351 2 11 15 12 7 6 4 352 317 282 298 279 233 216 205 190 184 179 176 171 162 155 158 156 160 172 172 171 173 177 174 177 179 175 174 176 178 178 177 180 190 192 189 193 184 179 178 173 175 177 177 181 179 176 178 176 176 176 180 184 189 193 198 197 203
332 333 333 335 340 339 341 342 339 344 344 345 345 349 348 350 348 338 335 342 352 6 10 9 10 8 4 3 4 352 314 289 246 219 208 201 187 174 169 170 166 161 156 161 167 170 177 175 175 177 176 180 177 175 177 178 177 180 181 186 189 189 190 182 163 177 181 182 178 181 180 180 177 177 179 179 181 186 185 188 193 194 193 195 202
332 330 333 331 335 341 345 340 341 346 346 348 344 345 350 352 347 341 346 347 348 351 355 0 6 8 5 4 11 14 8 307 247 209 204 217 196 181 167 166 166 165 166 172 172 177 178 182 180 178 180 177 174 175 177 178 178 181 186 190 189 180 177 167 174 186 186 185 187 187 185 183 181 180 183 186 190 188 187 192 190 191 195 200 199
336 334 342 347 348 346 342 345 346 349 350 351 343 346 353 349 348 355 357 352 349 347 340 345 358 8 10 7 11 15 19 33 35 29 14 228 195 180 160 154 160 165 176 181 179 176 177 183 183 180 176 175 176 178 178 179 179 181 185 184 179 171 170 178 186 184 183 186 193 195 190 189 186 189 187 187 186 191 194 194 193 196 197 197 196
341 342 344 350 353 351 352 350 347 354 355 347 340 345 349 348 357 358 350 351 354 347 348 339 342 348 14 17 10 7 13 22 35 34 32 26 24 141 134 159 166 177 179 183 185 183 184 182 174 172 172 176 174 177 178 177 181 183 181 176 175 176 178 182 185 182 185 187 192 192 191 196 194 192 191 190 193 196 198 195 196 198 200 198 196
342 344 347 351 351 349 349 342 342 351 348 344 348 347 348 355 357 357 355 359 358 353 348 331 359 3 12 11 2 357 4 18 37 37 34 33 32 30 24 24 39 147 166 157 122 123 156 176 176 169 171 174 177 177 176 179 177 176 174 176 177 176 181 184 182 181 184 190 191 190 192 195 193 189 183 188 197 203 202 200 204 203 202 202 196
343 347 351 352 353 353 349 346 351 348 346 349 348 349 354 360 358 358 360 6 9 3 356 349 4 27 18 3 355 358 355 23 33 32 23 24 22 16 16 20 24 30 20 15 15 35 67 92 110 135 163 170 171 172 174 175 171 171 173 174 176 183 178 177 178 180 188 192 193 192 193 193 188 188 191 198 198 198 199 198 198 202 203 202 198
345 346 352 358 359 358 345 346 342 353 354 352 348 355 0 359 358 2 1 3 5 2 357 356 358 24 24 7 4 343 15 30 23 21 18 17 23 16 14 20 25 26 22 16 11 21 23 21 16 33 99 132 156 173 175 173 170 171 170 171 175 175 176 178 183 187 189 194 194 194 195 196 190 188 191 197 203 200 199 197 196 199 199 199 202
343 344 346 358 0 357 345 348 348 358 356 351 353 357 358 359 357 358 1 3 360 1 4 2 7 0 17 22 14 1 33 30 21 3 22 19 18 13 20 21 17 16 17 18 21 16 21 20 14 18 14 12 30 106 169 177 176 174 170 173 175 179 183 185 186 187 192 193 192 190 193 197 195 192 194 199 200 198 198 197 197 197 200 201 205
340 339 346 351 356 355 353 351 351 0 355 359 357 0 358 356 356 359 2 0 1 2 6 7 7 359 20 27 29 30 37 32 17 16 19 23 17 18 13 7 17 20 9 21 19 19 19 21 21 17 22 17 9 10 6 8 130 170 176 179 179 184 183 187 187 190 192 191 192 192 193 195 194 192 197 201 201 197 196 195 195 196 197 201 199
342 343 346 345 350 357 359 0 356 358 2 6 5 3 359 355 357 3 360 1 2 2 2 359 5 350 13 24 28 31 35 28 20 15 19 15 18 21 22 21 23 23 25 14 13 16 20 29 32 29 31 25 20 14 9 4 354 357 125 170 179 181 183 187 189 190 190 190 192 194 193 191 192 197 201 197 190 191 191 194 194 194 196 196 195
344 345 344 348 354 356 359 355 357 358 4 7 5 3 1 360 360 356 357 3 7 7 1 3 358 3 9 18 23 27 30 28 25 21 19 16 16 9 18 29 22 17 14 21 28 20 24 35 36 34 25 25 26 26 28 17 3 10 17 27 36 47 112 175 190 190 190 192 193 193 190 186 185 191 193 189 187 190 196 192 193 191 192 191 189
345 345 346 350 352 355 357 0 3 0 358 356 0 5 10 357 356 358 6 6 9 7 6 5 355 1 355 360 8 19 16 17 18 20 14 17 13 11 10 8 15 20 22 21 23 24 30 34 36 37 37 34 31 29 30 22 22 26 18 13 22 26 23 16 7 356 189 178 170 164 162 168 169 174 175 174 176 181 180 178 179 180 177 179 174
348 349 350 352 354 356 358 0 4 1 358 359 7 360 7 10 3 356 2 7 4 5 8 3 1 1 4 7 10 14 10 11 12 13 17 13 13 8 7 4 7 19 17 21 21 25 29 31 32 34 36 32 29 30 30 29 30 30 24 23 21 23 8 351 325 316 61 130 134 139 143 147 155 156 156 157 165 168 169 170 170 163 163 167 173
348 346 350 353 352 356 356 357 357 0 5 8 8 11 8 10 3 360 6 8 5 3 359 358 0 10 13 8 9 11 11 8 9 10 12 15 13 3 359 357 359 7 16 7 13 23 28 28 31 31 32 33 30 30 30 30 30 29 26 25 20 12 0 352 355 21 29 46 91 106 115 110 113 126 129 137 140 147 151 152 154 165 168 166 169
344 350 350 352 355 351 353 351 355 358 4 4 8 4 3 3 359 1 7 11 4 5 4 358 6 10 11 16 12 10 11 15 9 9 7 3 7 11 14 6 7 20 23 22 19 9 19 26 27 29 30 29 33 32 31 30 29 27 26 23 20 16 9 8 20 28 33 38 50 72 75 84 84 89 97 104 103 107 108 125 136 147 144 152 153
345 350 349 351 351 355 354 354 356 356 360 0 1 360 358 5 6 3 359 358 4 3 355 359 5 2 7 5 3 5 8 7 5 9 8 5 359 2 12 14 13 23 24 24 20 19 24 24 22 26 28 27 28 32 30 29 29 28 27 25 24 21 21 22 26 30 35 47 57 63 68 71 66 65 70 82 90 94 98 92 89 80 93 101 109
347 347 353 353 357 357 355 352 353 358 355 351 351 2 0 3 359 353 349 358 2 356 355 360 0 360 360 356 358 4 8 8 7 4 4 1 355 353 359 2 8 16 24 31 27 25 22 21 22 22 27 27 27 27 31 28 29 27 27 26 26 26 28 32 34 31 36 47 55 65 70 70 70 68 67 69 74 79 85 84 89 92 90 88 94
343 344 352 350 355 350 349 348 348 352 353 355 357 359 359 1 2 0 354 353 351 355 359 1 5 0 358 359 3 357 4 5 5 1 358 355 354 354 358 359 6 11 10 9 8 5 7 14 18 16 22 28 26 26 28 30 28 27 27 27 29 32 31 33 37 38 39 37 45 57 67 74 73 73 68 71 72 77 75 77 80 86 90 94 92
339 349 348 351 352 344 347 350 353 353 356 356 358 357 355 357 358 359 359 0 1 352 355 353 350 355 356 355 353 359 6 2 359 355 360 357 355 357 356 0 3 5 2 4 4 360 357 352 4 9 7 22 26 25 25 27 30 28 31 32 32 33 34 36 36 39 45 47 46 47 56 61 69 68 68 66 74 74 79 79 74 75 75 81 87